Regional Weather Roundup
Issued by NWS

Home | Current Version | Previous Version | Graphics & Text | Print | Product List | Glossary On
Versions: 1 2 3 4 5 6 7 8 9 10 11 12 13 14 15 16 17 18 19 20 21 22 23 24 25 26 27 28 29 30 31 32 33 34 35 36 37 38 39 40 41 42 43 44 45 46 47 48 49 50
000
ASUS45 KPSR 012110
RWRAZ

ARIZONA REGIONAL HOURLY WEATHER ROUNDUP
NATIONAL WEATHER SERVICE PHOENIX AZ
200 PM MST SUN MAR 01 2015

NOTE: FAIR INDICATES FEW OR NO CLOUDS BELOW 12,000 FEET WITH NO
SIGNIFICANT WEATHER AND/OR OBSTRUCTIONS TO VISIBILITY.

AZZ001>003-036-012200-
NORTHWEST ARIZONA

CITY           SKY/WX    TMP DP  RH WIND       PRES   REMARKS
BULLHEAD CITY  LGT RAIN  59  43  55 SW3       29.97F
KINGMAN        LGT RAIN  46  40  79 SE6       29.97S
$$

AZZ004>008-015-016-018-012200-
NORTH CENTRAL ARIZONA

CITY           SKY/WX    TMP DP  RH WIND       PRES   REMARKS
GRAND CANYON   SNOW      33  32  96 CALM      30.00F VSB 1/4
PRESCOTT       LGT RAIN  41  37  86 CALM      29.99F
FLAGSTAFF      LGT RAIN  33  31  92 NE5       30.01F FOG     WCI  29
PAYSON         PTSUNNY   48  45  87 S7G13     30.04F
PAGE           LGT RAIN  40  35  83 W3        30.05F
$$

AZZ009>014-017-012200-
NORTHEAST ARIZONA

CITY           SKY/WX    TMP DP  RH WIND       PRES   REMARKS
WINSLOW        LGT RAIN  44  41  89 NW10      30.04F
SAINT JOHNS    MOSUNNY   62  31  31 SW18G29   29.98F
WINDOW ROCK    LGT RAIN  49  40  71 SW14      30.04F
SHOW LOW       MOSUNNY   52  34  50 S23G32    30.04F
$$

AZZ023-012200-
GREATER PHOENIX AREA

CITY           SKY/WX    TMP DP  RH WIND       PRES   REMARKS
PHOENIX        PTSUNNY   75  46  35 S16G24    29.90F
BUCKEYE        PTSUNNY   73  48  40 S15G22    29.90F
GLENDALE       PTSUNNY   70  50  49 CALM      29.93F
LUKE AFB       PTSUNNY   71  51  49 E7        29.90F
DEER VALLEY    LGT RAIN  66  50  56 S8        29.92F
SCOTTSDALE     PTSUNNY   70  46  42 S9        29.93F
MESA-FALCON    PTSUNNY   70  46  43 S12       29.92F
MESA-GATEWAY   PTSUNNY   72  48  43 SE10G16   29.95F
CHANDLER       PTSUNNY   73  46  38 S14G23    29.92F
$$

AZZ027-028-012200-
SOUTHWEST MARICOPA COUNTY AND PINAL COUNTY

CITY           SKY/WX    TMP DP  RH WIND       PRES   REMARKS
CASA GRANDE    CLOUDY    73  45  35 S9G17     29.92F
GILA BEND      PTSUNNY   73  45  35 S12G26    29.90
$$

AZZ503-504-507>509-012200-
SOUTHEAST ARIZONA

CITY           SKY/WX    TMP DP  RH WIND       PRES   REMARKS
TUCSON         PTSUNNY   73  39  29 S9        29.96F
DAVIS-MONTHAN  SUNNY     74  38  27 S16       29.94F
NOGALES        MOSUNNY   69  38  32 S15       30.00F
SIERRA VISTA   MOSUNNY   69  28  21 S20G29    30.03F
DOUGLAS        MOSUNNY   71  27  19 S15G28    30.03F
SAFFORD        SUNNY     75  26  16 S17G25    29.94F
$$

AZZ020-021-025-026-031-012200-
SOUTHWEST ARIZONA

CITY           SKY/WX    TMP DP  RH WIND       PRES   REMARKS
YUMA           PTSUNNY   64  46  52 N7        29.91F
$$

CAZ031-033-041-043-047-048-061-012200-
SOUTHERN CALIFORNIA

CITY           SKY/WX    TMP DP  RH WIND       PRES   REMARKS
DOWNTOWN L.A.  CLOUDY    62  46  55 SE7       29.90F
L.A. AIRPORT   PTSUNNY   61  47  59 SE9G16    29.90F
SAN DIEGO      LGT RAIN  56  49  77 E10       29.93F
BURBANK        MOSUNNY   61  41  47 SE13G21   29.89F
ONTARIO        CLOUDY    55  43  63 SE7       29.93S
RIVERSIDE      CLOUDY    56  45  66 S10       29.95R
PALM SPRINGS   LGT RAIN  53  47  79 S5        30.01F
EL CENTRO NAS  LGT RAIN  56  52  86 NW13      29.96F FOG
IMPERIAL       LGT RAIN  55  53  93 NW8       29.95F
BLYTHE         CLOUDY    56  50  80 NW9       29.95F
NEEDLES        LGT RAIN  57  49  74 SW6       29.96F
$$

NVZ020-UTZ003-012200-
SOUTHERN NEVADA-UTAH

CITY           SKY/WX    TMP DP  RH WIND       PRES   REMARKS
LAS VEGAS      CLOUDY    56  33  42 E5        29.93F
SALT LAKE CITY PTSUNNY   44  28  53 VRB3      30.05F
$$

NMZ009-TXZ055-012200-
NEW MEXICO-WEST TEXAS

CITY           SKY/WX    TMP DP  RH WIND       PRES   REMARKS
ALBUQUERQUE    MOSUNNY   56  40  55 W3        30.05F
EL PASO        CLOUDY    72  16  12 S15       30.04F
$$


........................KEY........................
SKY/WX - SKY CONDITION/WEATHER
TMP    - TEMPERATURE IN FAHRENHEIT
DP     - DEW POINT IN FAHRENHEIT
RH     - RELATIVE HUMIDITY IN PERCENT
WIND   - DIRECTION AND SPEED IN MILES PER HOUR (MPH)
VRB    - VARIABLE WIND DIRECTION
PRES   - MEAN SEA LEVEL PRESSURE IN INCHES OF MERCURY
         F - FALLING PRESSURE   R - RISING PRESSURE
         S - STEADY PRESSURE
VSB    - VISIBILITY IN MILES
HX     - HEAT INDEX IN FAHRENHEIT
WCI    - WIND CHILL INDEX IN FAHRENHEIT
TC     - TEMPERATURE IN CELSIUS WHICH IS ALSO KNOWN AS
         TEMPERATURE IN CENTIGRADE
AFB    - AIR FORCE BASE
         LUKE AFB IS LUKE AIR FORCE BASE
         DAVIS-MONTHAN IS DAVIS-MONTHAN AIR FORCE BASE
NAS    - NAVAL AIR STATION
         EL CENTRO NAS IS EL CENTRO NAVAL AIR STATION
N/A    - NOT AVAILABLE


USA.gov is the U.S. government's official web portal to all federal, state and local government web resources and services.